• en Suisse
  • Liste des pays
  • À 7 jours
  • Température de l'eau
  • Carte satellitaire
  • Carte météo
  • Widgets météo
  • user-avatar
    Se connecter

    Météo par heure à Serebryanka

    Ce jour, 16 Octobre, Mardi

    Heure Température Précipitation Vent Pression Humidité
    00:00 +16°C° 0 mm 1 m/s 763 mmHg 68%
    01:00 +16°C° 0 mm 1 m/s 763 mmHg 70%
    02:00 +15°C° 0 mm 1 m/s 763 mmHg 72%
    03:00 +15°C° 0 mm 1 m/s 763 mmHg 76%
    04:00 +15°C° 0 mm 1 m/s 763 mmHg 78%
    05:00 +14°C° 0 mm 1 m/s 763 mmHg 79%
    06:00 +14°C° 0 mm 1 m/s 763 mmHg 81%
    07:00 +15°C° 0 mm 1 m/s 763 mmHg 77%
    08:00 +16°C° 0 mm 1 m/s 764 mmHg 72%
    09:00 +17°C° 0 mm 2 m/s 764 mmHg 66%
    10:00 +19°C° 0 mm 2 m/s 764 mmHg 60%
    11:00 +21°C° 0 mm 2 m/s 764 mmHg 53%
    12:00 +23°C° 0 mm 2 m/s 764 mmHg 46%
    13:00 +24°C° 0 mm 2 m/s 763 mmHg 43%
    14:00 +25°C° 0 mm 2 m/s 763 mmHg 40%
    15:00 +25°C° 0 mm 2 m/s 763 mmHg 36%
    16:00 +24°C° 0 mm 2 m/s 763 mmHg 40%
    17:00 +21°C° 0 mm 2 m/s 763 mmHg 44%
    18:00 +21°C° 0 mm 1 m/s 763 mmHg 48%
    19:00 +20°C° 0 mm 1 m/s 763 mmHg 50%
    20:00 +19°C° 0 mm 1 m/s 763 mmHg 52%
    21:00 +19°C° 0 mm 1 m/s 763 mmHg 54%
    22:00 +18°C° 0 mm 1 m/s 763 mmHg 56%
    23:00 +18°C° 0 mm 1 m/s 763 mmHg 58%

    Demain, 17 Octobre, Mercredi

    Heure Température Précipitation Vent Pression Humidité
    00:00 +16°C° 0 mm 1 m/s 763 mmHg 59%
    01:00 +16°C° 0 mm 1 m/s 763 mmHg 61%
    02:00 +15°C° 0 mm 1 m/s 763 mmHg 62%
    03:00 +14°C° 0 mm 0 m/s 763 mmHg 64%
    04:00 +14°C° 0 mm 0 m/s 762 mmHg 65%
    05:00 +14°C° 0 mm 1 m/s 762 mmHg 66%
    06:00 +14°C° 0 mm 1 m/s 762 mmHg 68%
    07:00 +15°C° 0 mm 1 m/s 762 mmHg 63%
    08:00 +16°C° 0 mm 1 m/s 762 mmHg 59%
    09:00 +19°C° 0 mm 1 m/s 762 mmHg 55%
    10:00 +20°C° 0 mm 1 m/s 762 mmHg 51%
    11:00 +21°C° 0 mm 2 m/s 762 mmHg 46%
    12:00 +23°C° 0 mm 2 m/s 762 mmHg 41%
    13:00 +24°C° 0 mm 2 m/s 762 mmHg 39%
    14:00 +25°C° 0 mm 2 m/s 761 mmHg 36%
    15:00 +25°C° 0 mm 2 m/s 761 mmHg 34%
    16:00 +24°C° 0 mm 2 m/s 761 mmHg 38%
    17:00 +21°C° 0 mm 2 m/s 761 mmHg 41%
    18:00 +20°C° 0 mm 2 m/s 761 mmHg 44%
    19:00 +19°C° 0 mm 2 m/s 761 mmHg 46%
    20:00 +18°C° 0 mm 2 m/s 761 mmHg 48%
    21:00 +18°C° 0 mm 2 m/s 761 mmHg 49%
    22:00 +17°C° 0 mm 2 m/s 761 mmHg 51%
    23:00 +17°C° 0 mm 2 m/s 761 mmHg 52%

    Après-demain, 18 Octobre, Jeudi

    Heure Température Précipitation Vent Pression Humidité
    00:00 +16°C° 0 mm 2 m/s 761 mmHg 54%
    01:00 +16°C° 0 mm 2 m/s 761 mmHg 55%
    02:00 +15°C° 0 mm 2 m/s 761 mmHg 57%
    03:00 +15°C° 0 mm 2 m/s 761 mmHg 58%
    04:00 +14°C° 0 mm 2 m/s 761 mmHg 60%
    05:00 +14°C° 0 mm 2 m/s 761 mmHg 62%
    06:00 +14°C° 0 mm 2 m/s 761 mmHg 63%
    07:00 +15°C° 0 mm 2 m/s 761 mmHg 60%
    08:00 +15°C° 0 mm 2 m/s 761 mmHg 58%
    09:00 +16°C° 0 mm 3 m/s 761 mmHg 55%
    10:00 +18°C° 0 mm 3 m/s 761 mmHg 49%
    11:00 +20°C° 0 mm 3 m/s 761 mmHg 44%
    12:00 +22°C° 0 mm 3 m/s 760 mmHg 38%
    13:00 +22°C° 0 mm 3 m/s 760 mmHg 36%
    14:00 +23°C° 0 mm 4 m/s 760 mmHg 34%
    15:00 +23°C° 0 mm 4 m/s 759 mmHg 33%
    16:00 +22°C° 0 mm 3 m/s 759 mmHg 36%
    17:00 +20°C° 0 mm 3 m/s 759 mmHg 39%
    18:00 +19°C° 0 mm 3 m/s 759 mmHg 42%
    19:00 +18°C° 0 mm 3 m/s 759 mmHg 43%
    20:00 +17°C° 0 mm 3 m/s 759 mmHg 45%
    21:00 +17°C° 0 mm 3 m/s 759 mmHg 46%
    22:00 +16°C° 0 mm 3 m/s 759 mmHg 48%
    23:00 +14°C° 0 mm 3 m/s 759 mmHg 50%

    19 Octobre, Vendredi

    Heure Température Précipitation Vent Pression Humidité
    00:00 +14°C° 0 mm 3 m/s 759 mmHg 52%
    01:00 +13°C° 0 mm 3 m/s 759 mmHg 54%
    02:00 +13°C° 0 mm 3 m/s 759 mmHg 55%
    03:00 +12°C° 0 mm 3 m/s 759 mmHg 57%
    04:00 +12°C° 0 mm 3 m/s 759 mmHg 59%
    05:00 +11°C° 0 mm 3 m/s 758 mmHg 60%
    06:00 +11°C° 0 mm 3 m/s 758 mmHg 62%
    07:00 +12°C° 0 mm 3 m/s 758 mmHg 60%
    08:00 +13°C° 0 mm 3 m/s 758 mmHg 57%
    09:00 +14°C° 0 mm 4 m/s 758 mmHg 54%
    10:00 +17°C° 0 mm 4 m/s 758 mmHg 50%
    11:00 +19°C° 0 mm 4 m/s 757 mmHg 45%
    12:00 +20°C° 0 mm 4 m/s 757 mmHg 41%
    13:00 +21°C° 0 mm 4 m/s 756 mmHg 39%
    14:00 +22°C° 0 mm 4 m/s 756 mmHg 38%
    15:00 +22°C° 0 mm 4 m/s 755 mmHg 36%
    16:00 +21°C° 0 mm 4 m/s 755 mmHg 40%
    17:00 +19°C° 0 mm 3 m/s 755 mmHg 44%
    18:00 +18°C° 0 mm 3 m/s 755 mmHg 48%
    19:00 +17°C° 0 mm 3 m/s 755 mmHg 50%
    20:00 +17°C° 0 mm 3 m/s 755 mmHg 53%
    21:00 +16°C° 0 mm 3 m/s 755 mmHg 56%
    22:00 +14°C° 0 mm 3 m/s 754 mmHg 58%
    23:00 +14°C° 0 mm 3 m/s 754 mmHg 61%

    20 Octobre, Samedi

    Heure Température Précipitation Vent Pression Humidité
    00:00 +15°C° 0 mm 2 m/s 754 mmHg 64%
    01:00 +14°C° 0 mm 2 m/s 754 mmHg 67%
    02:00 +14°C° 0 mm 2 m/s 753 mmHg 70%
    03:00 +14°C° 0 mm 2 m/s 753 mmHg 74%
    04:00 +13°C° 0 mm 2 m/s 753 mmHg 76%
    05:00 +13°C° 0 mm 2 m/s 753 mmHg 79%
    06:00 +13°C° 0 mm 1 m/s 753 mmHg 81%
    07:00 +14°C° 0 mm 1 m/s 753 mmHg 79%
    08:00 +14°C° 0 mm 1 m/s 753 mmHg 77%
    09:00 +15°C° 0 mm 1 m/s 753 mmHg 75%
    10:00 +16°C° 0 mm 1 m/s 753 mmHg 70%
    11:00 +19°C° 0 mm 1 m/s 753 mmHg 65%
    12:00 +20°C° 0 mm 1 m/s 753 mmHg 60%
    13:00 +21°C° 0 mm 1 m/s 752 mmHg 57%
    14:00 +21°C° 0 mm 1 m/s 752 mmHg 55%
    15:00 +22°C° 0 mm 1 m/s 752 mmHg 52%
    16:00 +21°C° 0 mm 1 m/s 752 mmHg 55%
    17:00 +20°C° 0 mm 1 m/s 752 mmHg 59%
    18:00 +19°C° 0 mm 1 m/s 752 mmHg 63%
    19:00 +18°C° 0 mm 1 m/s 752 mmHg 67%
    20:00 +16°C° 0 mm 1 m/s 752 mmHg 71%
    21:00 +16°C° 0 mm 1 m/s 752 mmHg 74%
    22:00 +15°C° 0 mm 1 m/s 752 mmHg 77%
    23:00 +15°C° 0 mm 1 m/s 752 mmHg 80%

    21 Octobre, Dimanche

    Heure Température Précipitation Vent Pression Humidité
    00:00 +15°C° 0 mm 1 m/s 752 mmHg 82%
    01:00 +14°C° 0 mm 1 m/s 752 mmHg 84%
    02:00 +14°C° 0 mm 1 m/s 752 mmHg 85%
    03:00 +14°C° 0 mm 1 m/s 752 mmHg 87%
    04:00 +14°C° 0 mm 1 m/s 752 mmHg 88%
    05:00 +13°C° 0 mm 1 m/s 752 mmHg 89%
    06:00 +13°C° 0 mm 1 m/s 752 mmHg 90%
    07:00 +14°C° 0 mm 1 m/s 752 mmHg 87%
    08:00 +14°C° 0 mm 1 m/s 752 mmHg 84%
    09:00 +14°C° 0 mm 0 m/s 753 mmHg 80%
    10:00 +16°C° 0 mm 1 m/s 753 mmHg 74%
    11:00 +18°C° 0 mm 1 m/s 753 mmHg 68%
    12:00 +19°C° 0 mm 2 m/s 753 mmHg 62%
    13:00 +19°C° 0.3 mm 2 m/s 753 mmHg 60%
    14:00 +19°C° 0.3 mm 3 m/s 752 mmHg 58%
    15:00 +19°C° 0.3 mm 4 m/s 752 mmHg 56%
    16:00 +18°C° 0.2 mm 4 m/s 753 mmHg 61%
    17:00 +17°C° 0.2 mm 4 m/s 753 mmHg 66%
    18:00 +15°C° 0.2 mm 4 m/s 753 mmHg 71%
    19:00 +14°C° 0 mm 4 m/s 753 mmHg 75%
    20:00 +13°C° 0 mm 4 m/s 753 mmHg 79%
    21:00 +12°C° 0 mm 4 m/s 754 mmHg 83%
    22:00 +12°C° 0 mm 4 m/s 754 mmHg 84%
    23:00 +11°C° 0 mm 4 m/s 754 mmHg 86%
    Voir plus